Location: Carrières
(48.9495°N, 2.0407°E)
Time: 21:15:38
(UTC+00:00)

Transit 2A Rocket - Pass Details

Date: 29 April 2024
Orbit: 585 x 908 km, 66.7° (Epoch: 18 May)

Event Time Altitude Azimuth Distance (km) Brightness Sun altitude
Rises 18:44:11 0° 318° (NW) 3,348 9.6 2.4°
Reaches altitude 10° 18:46:45 10° 309° (NW) 2,458 9.3 2.0°
Maximum altitude 18:51:49 34° 247° (WSW) 1,415 7.0 1.2°
Drops below altitude 10° 18:57:07 10° 185° (S) 2,568 7.6 0.4°
Sets 18:59:52 0° 176° (S) 3,518 8.2 0.0°
